Location: Township of Marena
(38.1747°N, 99.6798°W)
Time: 13:23:16
(UTC+00:00)

ARGOS Delta rocket - Pass Details

Date: 26 October 2020
Orbit: 636 x 837 km, 96.5° (Epoch: 28 November)

Event Time Altitude Azimuth Distance (km) Brightness Sun altitude
Rises 11:34:54 0° 10° (N) 3,341 7.4 -17.1°
Reaches altitude 10° 11:37:14 10° 11° (N) 2,424 6.7 -16.7°
Maximum altitude 11:42:40 88° 96° (E) 840 4.2 -15.6°
Drops below altitude 10° 11:48:09 10° 191° (SSW) 2,440 6.5 -14.5°
Sets 11:50:31 0° 192° (SSW) 3,364 7.3 -14.1°
